Vertical_Velocity
-4 -3 -5 -1 1 -2 -3 -3 -5 -2 -0 1 -1 -2 -1 -2 -2 -1 -3 -2 1 -1 1 2 3 1 2 -3 -3 -3 -5 -5 -1 7 4 4 0 3 -1 5 4 1 12
-3 -5 -1 -1 -2 -4 -2 -3 -3 -1 -1 0 -2 1 -1 -0 -2 -4 -2 2 0 10 4 3 2 1 -1 -1 -3 -4 -3 -3 -3 4 -1 3 1 -2 4 6 8 5 2
-1 -3 1 0 -2 -4 -2 -3 -4 -3 0 -0 -2 -2 -1 3 1 -5 0 -0 7 5 -0 2 3 -1 -0 -0 -1 -3 -2 -2 -0 -2 -1 -2 -1 1 -4 5 6 6 -1
-2 -2 -2 2 -1 -4 -4 -3 -4 -3 2 -4 1 -2 -1 -1 -1 -1 1 0 -1 5 2 4 2 3 -0 0 1 2 -2 -2 -3 0 -3 -1 -3 -5 -0 3 4 7 -3
-1 0 -2 1 -1 -4 -3 -3 -4 -0 1 -3 3 2 1 1 -1 -2 -1 -1 0 5 2 1 2 0 -3 -3 -1 -1 0 -3 -1 -2 -2 -3 -2 0 -4 -9 -6 0 0
-1 -2 -0 -2 -2 -3 -1 -1 -3 -1 0 1 3 2 2 1 1 2 0 1 -2 -0 0 0 2 -0 -3 -3 -4 -5 -3 -1 -1 -3 0 1 -0 -2 0 -2 -3 0 -10
1 0 -1 -2 -3 -2 -1 -1 -2 -1 1 1 2 3 2 1 2 2 3 1 3 2 -1 -3 -2 1 -0 -2 -2 -3 -1 -1 -2 -4 -4 -3 -1 -1 -1 1 -1 -2 3
-4 0 -1 -4 -2 -1 -1 -1 -1 -1 0 1 2 3 3 2 3 3 2 1 2 1 -0 -1 -2 1 0 -1 -2 -3 -3 -3 -1 1 -1 -3 -7 -6 -4 -1 -2 -6 2
3 -1 -2 -1 -3 -0 -2 -3 -3 -1 0 1 2 3 2 2 2 2 2 0 1 0 -0 -0 -1 -1 0 1 2 1 2 1 -0 1 5 4 2 0 -4 -3 -3 -0 -6
5 0 0 -2 -1 -1 -3 0 -3 -3 -0 1 0 0 1 3 1 1 2 1 2 3 3 1 1 2 -1 -1 -1 -2 -0 -3 -2 -1 -1 2 1 2 2 2 0 0 -4
-1 2 -2 -1 0 -1 -1 -2 -1 2 1 -1 2 2 1 1 0 1 0 1 0 2 3 3 3 2 2 -0 -1 -3 -3 -4 -2 -3 -0 -2 1 1 -2 -3 1 3 2
2 0 -0 -0 -0 -0 0 -1 0 0 1 -2 -0 -0 -0 -0 1 1 1 1 1 1 2 2 3 3 2 1 2 2 2 1 2 -1 2 1 2 0 -1 -1 -3 -8 -6
1 -0 -1 1 -0 1 0 1 0 1 0 1 2 3 2 2 3 3 2 1 2 -0 -1 -0 -1 -0 1 2 -0 -2 0 -1 -4 -5 -5 -3 -1 0 -2 -2 -2 -2 -1
0 0 0 2 -2 1 -0 -1 1 1 -0 1 1 0 1 2 2 1 1 1 1 0 1 1 1 0 -0 -3 -4 -5 -5 -5 -5 -7 -7 -7 -7 -6 -4 1 1 -3 -4
1 -0 0 2 -2 4 0 -0 1 1 -0 -1 1 1 0 -1 -1 -1 -0 -0 -2 -4 -4 -4 -3 -3 -4 -3 -2 -2 -2 -2 -3 -4 -5 -4 -2 -3 -8 -7 -7 -6 -5
1 -2 1 2 1 1 1 1 1 2 1 1 -0 0 1 1 -2 -2 -1 1 3 2 1 0 0 1 0 -1 -4 -6 -6 -6 -4 -2 -1 -1 -1 -1 -3 -7 -8 -7 -0
-1 0 -2 3 3 2 1 1 0 1 0 2 -1 0 -1 1 1 0 1 0 -1 -2 -1 -0 1 1 -0 -1 -1 1 2 2 1 -0 -1 -3 -3 -7 -4 -1 -0 -3 -3
3 1 2 2 2 -1 -1 -1 -1 -1 -4 3 -1 -1 -1 -1 -1 1 -0 -1 -2 0 0 -2 -3 -2 -3 -2 -1 -2 -4 -5 -5 -4 -4 -5 -3 -2 1 -1 -5 -6 -3
2 2 3 2 1 2 2 3 4 2 -2 1 2 -0 -1 -1 -4 -2 -4 -3 -2 -2 -2 -3 -3 -3 -3 -3 -4 -5 -4 -2 -3 -3 -4 -5 -6 -4 -4 -7 -5 -5 -7
2 2 2 1 0 0 0 1 0 3 -0 2 -1 1 0 -0 -0 -2 -1 -1 -1 -2 -2 -2 -3 -2 -3 -4 -4 -3 -4 -4 -5 -6 -7 -6 -7 -7 -6 -6 -7 -5 -3
1 2 1 1 -0 1 1 -0 -0 3 -3 -2 1 -1 0 -0 -2 -2 -2 -2 -2 -2 -3 -2 -2 -2 -3 -3 -2 -3 -4 -4 -4 -5 -5 -5 -5 -4 -8 -10 -9 -8 -8
3 1 1 -0 -0 -1 0 1 -1 0 3 0 -2 -1 -2 -2 -0 -2 -2 -2 -2 -2 -1 -1 -2 -1 -1 -2 -3 -4 -4 -3 -3 -4 -5 -5 -4 -5 -5 -6 -6 -8 -8
2 0 -1 2 1 -0 -1 0 0 1 0 3 -0 -1 -1 -2 -1 -1 -1 -1 -2 -2 -2 -2 -2 -3 -4 -5 -4 -3 -3 -3 -3 -2 -2 -4 -5 -5 -6 -6 -7 -6 -6
3 0 1 1 -0 1 -1 1 -1 1 -0 -2 -1 -3 -1 -2 0 -2 -3 -2 -3 -1 -1 -1 -1 -3 -3 -4 -5 -4 -4 -3 -2 -4 -4 -4 -4 -5 -6 -6 -7 -7 -7
3 1 1 1 -0 1 2 1 2 0 -0 -0 -1 -0 -0 -2 0 -2 -2 -2 -1 -1 -1 -2 -3 -3 -3 -3 -3 -2 -3 -4 -3 -2 -4 -5 -5 -5 -6 -6 -7 -5 -6
-0 -1 0 1 1 2 2 1 -2 1 -1 0 -2 1 -1 -1 -1 -0 -1 -1 -1 -1 -2 -2 -2 -3 -3 -2 -3 -2 -3 -2 -4 -5 -4 -4 -4 -3 -4 -4 -5 -5 -5
Height
5650 5645 5641 5637 5631 5626 5621 5617 5614 5611 5607 5602 5597 5593 5589 5586 5583 5581 5578 5578 5577 5578 5581 5584 5588 5593 5597 5600 5602 5603 5603 5603 5603 5602 5601 5603 5606 5610 5615 5622 5627 5633 5638
5638 5633 5629 5624 5619 5614 5610 5606 5602 5599 5595 5591 5586 5583 5579 5576 5573 5572 5570 5570 5570 5571 5574 5577 5580 5585 5589 5592 5592 5593 5593 5592 5591 5590 5587 5591 5596 5599 5603 5608 5614 5619 5623
5625 5621 5617 5612 5607 5603 5599 5594 5590 5587 5583 5579 5576 5572 5570 5568 5565 5565 5563 5562 5562 5564 5567 5570 5574 5577 5580 5581 5583 5583 5583 5582 5581 5581 5578 5579 5584 5588 5592 5596 5600 5605 5609
5614 5610 5606 5601 5596 5592 5587 5582 5578 5575 5571 5567 5565 5562 5560 5560 5558 5558 5558 5557 5556 5557 5560 5563 5567 5568 5571 5572 5573 5573 5573 5572 5572 5571 5572 5570 5574 5578 5582 5586 5588 5590 5594
5602 5599 5596 5591 5587 5582 5577 5572 5568 5564 5561 5557 5555 5554 5553 5553 5552 5551 5551 5551 5552 5552 5553 5556 5558 5560 5562 5562 5563 5563 5562 5562 5562 5562 5563 5564 5567 5568 5571 5574 5577 5579 5582
5592 5589 5586 5582 5578 5573 5568 5563 5558 5555 5551 5548 5547 5548 5548 5548 5548 5547 5547 5545 5546 5546 5548 5549 5551 5553 5553 5553 5553 5553 5552 5551 5551 5552 5553 5555 5556 5558 5560 5561 5563 5567 5571
5582 5579 5577 5573 5569 5564 5560 5555 5551 5546 5544 5543 5543 5543 5544 5544 5544 5544 5543 5542 5542 5541 5541 5543 5545 5545 5544 5545 5545 5545 5544 5542 5541 5541 5541 5542 5545 5546 5548 5548 5549 5551 5554
5572 5571 5569 5564 5560 5557 5553 5549 5545 5542 5541 5540 5540 5540 5541 5541 5541 5541 5540 5539 5538 5537 5537 5537 5538 5538 5537 5537 5537 5536 5536 5535 5534 5533 5531 5531 5532 5532 5534 5535 5535 5536 5539
5564 5562 5560 5556 5552 5550 5548 5545 5542 5540 5538 5537 5537 5537 5538 5538 5538 5538 5537 5536 5535 5535 5534 5534 5534 5533 5532 5531 5531 5530 5530 5530 5528 5527 5525 5524 5524 5523 5522 5522 5522 5523 5522
5555 5554 5551 5548 5546 5544 5542 5541 5538 5537 5536 5535 5535 5535 5536 5535 5535 5534 5533 5532 5531 5531 5530 5530 5529 5527 5527 5525 5524 5523 5523 5522 5521 5520 5519 5517 5516 5515 5514 5514 5513 5511 5510
5547 5545 5543 5542 5541 5539 5538 5537 5536 5535 5534 5534 5534 5533 5533 5532 5532 5531 5530 5529 5528 5527 5527 5526 5525 5524 5523 5521 5520 5518 5517 5515 5514 5513 5511 5510 5508 5506 5505 5504 5504 5503 5501
5539 5537 5536 5536 5536 5535 5534 5534 5534 5534 5533 5532 5532 5531 5530 5530 5529 5528 5526 5525 5524 5523 5521 5520 5520 5519 5518 5516 5515 5513 5511 5509 5507 5505 5502 5500 5497 5496 5494 5492 5490 5489 5488
5531 5531 5531 5531 5531 5531 5531 5531 5531 5531 5530 5529 5529 5528 5528 5527 5526 5524 5523 5521 5520 5518 5517 5515 5514 5513 5511 5509 5507 5504 5501 5498 5496 5493 5490 5488 5485 5482 5480 5477 5475 5473 5472
5524 5524 5525 5526 5526 5527 5527 5528 5528 5527 5527 5526 5525 5525 5524 5522 5521 5519 5517 5515 5513 5511 5510 5508 5506 5504 5502 5499 5496 5494 5491 5488 5484 5480 5477 5474 5470 5467 5464 5461 5458 5455 5453
5518 5519 5520 5521 5521 5523 5523 5524 5524 5523 5523 5522 5521 5520 5518 5516 5514 5512 5510 5508 5506 5504 5502 5500 5497 5494 5491 5488 5486 5483 5479 5475 5471 5467 5463 5459 5455 5450 5446 5443 5439 5436 5434
5512 5513 5514 5516 5517 5518 5519 5519 5519 5518 5518 5517 5515 5514 5513 5511 5508 5506 5504 5502 5500 5497 5494 5491 5488 5485 5482 5478 5474 5470 5465 5460 5455 5451 5446 5441 5437 5433 5428 5423 5419 5415 5413
5505 5507 5509 5511 5512 5513 5513 5514 5513 5513 5512 5511 5510 5508 5506 5504 5502 5500 5497 5494 5491 5488 5485 5481 5477 5473 5469 5464 5460 5455 5450 5444 5439 5434 5428 5424 5419 5413 5407 5402 5398 5394 5390
5500 5501 5504 5506 5506 5506 5506 5507 5507 5507 5505 5505 5503 5501 5499 5496 5494 5491 5487 5484 5481 5477 5473 5469 5464 5460 5455 5450 5445 5439 5433 5426 5421 5415 5408 5403 5397 5390 5384 5379 5373 5369 5365
5494 5496 5498 5499 5500 5501 5502 5501 5501 5500 5498 5497 5495 5493 5490 5487 5484 5480 5477 5473 5470 5466 5461 5456 5451 5446 5440 5434 5428 5422 5416 5409 5402 5395 5387 5380 5373 5367 5360 5353 5347 5340 5335
5488 5490 5491 5492 5493 5494 5493 5493 5493 5492 5490 5489 5486 5484 5481 5478 5474 5470 5467 5463 5458 5453 5448 5442 5437 5431 5425 5419 5412 5405 5397 5390 5382 5374 5366 5357 5349 5342 5334 5327 5319 5313 5307
5482 5483 5484 5485 5485 5486 5485 5485 5484 5482 5480 5478 5476 5473 5470 5467 5463 5459 5454 5450 5445 5440 5435 5429 5423 5416 5409 5402 5395 5387 5379 5371 5362 5352 5344 5335 5326 5318 5309 5301 5293 5285 5277
5476 5477 5477 5477 5477 5477 5476 5475 5474 5473 5471 5468 5465 5462 5459 5456 5451 5447 5442 5438 5432 5427 5421 5414 5408 5401 5393 5386 5378 5370 5361 5352 5343 5333 5324 5315 5307 5298 5289 5279 5270 5260 5250
5468 5468 5468 5468 5468 5467 5466 5466 5464 5462 5460 5458 5455 5451 5447 5443 5439 5434 5430 5424 5419 5412 5406 5399 5392 5385 5377 5370 5361 5353 5343 5334 5325 5316 5307 5298 5288 5279 5269 5259 5248 5238 5227
5459 5459 5459 5458 5458 5457 5456 5455 5453 5452 5449 5446 5443 5439 5436 5431 5427 5421 5417 5411 5405 5398 5391 5384 5377 5369 5361 5352 5343 5334 5325 5317 5308 5299 5290 5280 5270 5260 5250 5239 5228 5216 5205
5450 5450 5450 5449 5448 5447 5446 5445 5443 5440 5437 5435 5432 5428 5423 5419 5415 5409 5403 5397 5391 5384 5376 5369 5362 5353 5344 5335 5326 5317 5309 5300 5291 5282 5272 5262 5252 5242 5231 5220 5208 5197 5184
5441 5441 5441 5440 5440 5438 5437 5434 5432 5430 5427 5424 5420 5416 5412 5407 5402 5396 5390 5383 5377 5369 5362 5354 5346 5337 5328 5319 5310 5302 5294 5285 5275 5266 5256 5246 5236 5225 5214 5203 5190 5178 5166